DeKalb, IL

6:55 PM CDT on April 26, 2017 (GMT -0500)
De Kalb Taylor Municipal

Weather History for KDKB - December, 2013

Change the Weather History Date:

Sunday, December 15, 2013

  Actual Average (KARR) Record (KARR)
Temperature  
Mean Temperature 14 °F -  
Max Temperature 18 °F 33 °F 56 °F (2011)
Min Temperature 10 °F 18 °F -5 °F (2010)
Degree Days  
Heating Degree Days 51    
Moisture  
Dew Point 6 °F    
Average Humidity 75    
Maximum Humidity 89    
Minimum Humidity 67    
Precipitation  
Precipitation 0.00 in - - ()
Sea Level Pressure  
Sea Level Pressure 30.02 in    
Wind  
Wind Speed 13 mph (WNW)    
Max Wind Speed 23 mph    
Max Gust Speed 30 mph    
Visibility 10 miles    
Events Snow    
Averages and records for this station are not official NWS values.
T = Trace of Precipitation, MM = Missing Value Source: NWS Daily Summary

Daily Weather History Graph

Daily Weather History Graph

Search for Another Location

Airport or City:

Trip Planner

Search our weather history database for the weather conditions in past years. The results will help you decide how hot, cold, wet, or windy it might be!

Date:

Astronomy

Dec. 15, 2013 Rise Set
Actual Time 7:15 AM CST 4:24 PM CST
Civil Twilight 6:44 AM CST 4:56 PM CST
Nautical Twilight 6:08 AM CST 5:31 PM CST
Astronomical Twilight 5:35 AM CST 6:05 PM CST
Moon 3:29 PM CST (12/15) 5:30 AM CST (12/15)
Length of Visible Light 10h 12m
Length of Day
9h 08m
Waxing Gibbous, 98% of the Moon is Illuminated
Dec 15
Waxing Gibbous
Dec 17
Full
Dec 25
Last Quarter
Jan 1
New
Jan 7
First Quarter

Hourly Weather History & Observations

Time (CST) Temp. Windchill Dew Point Humidity Pressure Visibility Wind Dir Wind Speed Gust Speed Precip Events Conditions
12:15 AM 18.3 °F 5.9 °F 14.9 °F 86% 29.95 in 10.0 mi West 11.5 mph - N/A   Overcast
12:35 AM 18.1 °F 5.0 °F 15.3 °F 88% 29.94 in 10.0 mi WSW 12.7 mph - N/A   Overcast
12:55 AM 18.3 °F 4.6 °F 15.6 °F 89% 29.93 in 10.0 mi WSW 13.8 mph - N/A   Overcast
1:15 AM 18.0 °F 2.2 °F 14.9 °F 88% 29.93 in 10.0 mi West 18.4 mph 23.0 mph N/A   Overcast
1:35 AM 18.0 °F 3.1 °F 14.0 °F 84% 29.93 in 10.0 mi West 16.1 mph - N/A   Overcast
1:55 AM 17.6 °F 1.7 °F 13.1 °F 83% 29.94 in 10.0 mi West 18.4 mph - N/A   Overcast
2:15 AM 17.2 °F 2.7 °F 13.1 °F 84% 29.94 in 10.0 mi West 15.0 mph 20.7 mph N/A   Overcast
2:35 AM 16.2 °F -0.2 °F 11.5 °F 82% 29.95 in 10.0 mi West 18.4 mph 25.3 mph N/A   Overcast
2:55 AM 15.3 °F -1.8 °F 10.9 °F 83% 29.95 in 7.0 mi West 19.6 mph 27.6 mph N/A Snow Light Snow
3:15 AM 14.5 °F -1.8 °F 10.4 °F 84% 29.95 in 7.0 mi West 17.3 mph - N/A Snow Light Snow
3:35 AM 14.5 °F -4.0 °F 10.4 °F 84% 29.94 in 5.0 mi West 23.0 mph 26.5 mph N/A Snow Light Snow
3:55 AM 12.6 °F -6.2 °F 7.0 °F 78% 29.95 in 7.0 mi WNW 21.9 mph 29.9 mph N/A   Mostly Cloudy
4:15 AM 12.2 °F -5.3 °F 6.6 °F 78% 29.95 in 7.0 mi WNW 18.4 mph 26.5 mph N/A Snow Light Snow
4:35 AM 11.3 °F -7.0 °F 5.7 °F 78% 29.96 in 10.0 mi WNW 19.6 mph 25.3 mph N/A   Mostly Cloudy
4:55 AM 10.8 °F -6.7 °F 4.8 °F 77% 29.96 in 10.0 mi WNW 17.3 mph 24.2 mph N/A   Scattered Clouds
5:15 AM - - - N/A% - 10.0 mi WNW 16.1 mph 25.3 mph N/A   Scattered Clouds
5:35 AM - - - N/A% - 10.0 mi WNW 18.4 mph 25.3 mph N/A   Clear
5:55 AM - - - N/A% - 10.0 mi North - - N/A   Unknown
6:15 AM - - - N/A% - 10.0 mi North - - N/A   Unknown
6:35 AM - - - N/A% - 10.0 mi North - - N/A   Unknown
6:55 AM - - - N/A% - 10.0 mi North - - N/A   Unknown
7:15 AM - - - N/A% - 10.0 mi North - - N/A   Unknown
7:55 AM - - - N/A% 29.99 in 10.0 mi WNW 15.0 mph 19.6 mph N/A   Unknown
8:15 AM - - - N/A% 30.00 in 10.0 mi West 10.4 mph - N/A   Overcast
8:35 AM - - - N/A% 30.00 in 10.0 mi West 12.7 mph - N/A   Overcast
8:55 AM - - - N/A% 30.01 in 10.0 mi West 12.7 mph 18.4 mph N/A   Overcast
9:15 AM - - - N/A% 30.02 in 10.0 mi West 13.8 mph 18.4 mph N/A   Overcast
9:35 AM - - - N/A% 30.03 in 10.0 mi West 15.0 mph 19.6 mph N/A   Overcast
9:55 AM - - - N/A% 30.03 in 10.0 mi West 12.7 mph - N/A   Overcast
10:15 AM - - - N/A% 30.03 in 10.0 mi West 12.7 mph - N/A   Overcast
10:35 AM - - - N/A% 30.03 in 10.0 mi West 13.8 mph 17.3 mph N/A   Overcast
11:15 AM 10.2 °F -6.9 °F 3.2 °F 73% 30.02 in 10.0 mi West 16.1 mph 20.7 mph N/A   Unknown
11:35 AM 10.2 °F -5.0 °F 3.2 °F 73% 30.01 in 10.0 mi West 12.7 mph - N/A   Overcast
11:55 AM 10.4 °F -5.4 °F 3.0 °F 72% 30.01 in 10.0 mi West 13.8 mph - N/A   Overcast
12:15 PM 10.8 °F -6.7 °F 2.7 °F 70% 30.02 in 10.0 mi West 17.3 mph 21.9 mph N/A   Overcast
12:35 PM 10.8 °F -5.6 °F 2.8 °F 70% 30.01 in 10.0 mi West 15.0 mph 18.4 mph N/A   Overcast
12:55 PM 10.9 °F -5.4 °F 2.8 °F 70% 30.01 in 10.0 mi West 15.0 mph - N/A   Overcast
1:15 PM 10.8 °F -4.3 °F 3.0 °F 71% 30.01 in 10.0 mi West 12.7 mph - N/A   Overcast
1:35 PM 11.3 °F -2.9 °F 3.2 °F 70% 30.01 in 10.0 mi West 11.5 mph - N/A   Overcast
1:55 PM 11.3 °F -2.9 °F 2.8 °F 69% 30.02 in 10.0 mi West 11.5 mph - N/A   Overcast
2:15 PM 11.3 °F -3.6 °F 2.5 °F 68% 30.02 in 10.0 mi West 12.7 mph 17.3 mph N/A   Overcast
2:35 PM 11.3 °F -2.2 °F 2.5 °F 68% 30.02 in 10.0 mi WNW 10.4 mph 17.3 mph N/A   Overcast
2:55 PM 11.3 °F -2.9 °F 2.3 °F 67% 30.02 in 10.0 mi WNW 11.5 mph - N/A   Overcast
3:15 PM 11.3 °F -1.3 °F 2.3 °F 67% 30.03 in 10.0 mi WNW 9.2 mph - N/A   Overcast
3:35 PM 11.1 °F -1.6 °F 2.8 °F 69% 30.04 in 10.0 mi West 9.2 mph - N/A   Overcast
3:55 PM 10.4 °F -1.5 °F 2.3 °F 70% 30.04 in 10.0 mi West 8.1 mph - N/A   Scattered Clouds
4:15 PM 10.2 °F -3.5 °F 2.3 °F 70% 30.04 in 10.0 mi West 10.4 mph - N/A   Scattered Clouds
4:35 PM 10.2 °F -2.7 °F 2.3 °F 70% 30.04 in 10.0 mi West 9.2 mph - N/A   Mostly Cloudy
4:55 PM - - - N/A% 30.04 in 10.0 mi West 9.2 mph - N/A   Scattered Clouds
5:15 PM - - - N/A% 30.05 in 10.0 mi West 5.8 mph - N/A   Mostly Cloudy
5:35 PM - - - N/A% 30.06 in 10.0 mi West 8.1 mph - N/A   Overcast
5:55 PM - - - N/A% 30.06 in 10.0 mi West 6.9 mph - N/A   Scattered Clouds
6:15 PM - - - N/A% 30.06 in 10.0 mi West 6.9 mph - N/A   Clear
6:35 PM - - - N/A% 30.07 in 10.0 mi West 6.9 mph - N/A   Mostly Cloudy
6:55 PM - - - N/A% 30.07 in 10.0 mi West 9.2 mph - N/A   Mostly Cloudy
7:15 PM - - - N/A% 30.07 in 10.0 mi West 5.8 mph - N/A   Scattered Clouds
7:35 PM - - - N/A% 30.08 in 10.0 mi West 6.9 mph - N/A   Clear
7:55 PM - - - N/A% 30.08 in 10.0 mi West 6.9 mph - N/A   Mostly Cloudy
8:15 PM - - - N/A% 30.09 in 10.0 mi West 8.1 mph - N/A   Mostly Cloudy
8:35 PM - - - N/A% 30.09 in 10.0 mi West 6.9 mph - N/A   Mostly Cloudy
8:55 PM - - - N/A% 30.08 in 10.0 mi West 5.8 mph - N/A   Mostly Cloudy
9:15 PM - - - N/A% 30.09 in 10.0 mi West 5.8 mph - N/A   Mostly Cloudy
9:35 PM - - - N/A% - 10.0 mi North - - N/A   Overcast
9:55 PM - - - N/A% 30.09 in 10.0 mi WNW 8.1 mph - N/A   Unknown
10:15 PM 10.4 °F -1.5 °F 3.2 °F 73% 30.09 in 10.0 mi NW 8.1 mph - N/A   Overcast
10:35 PM 10.4 °F -1.5 °F 3.2 °F 73% 30.09 in 10.0 mi NW 8.1 mph - N/A   Overcast
10:55 PM 10.8 °F 0.0 °F 3.2 °F 72% 30.09 in 10.0 mi NW 6.9 mph - N/A   Overcast
11:15 PM 10.8 °F 2.7 °F 2.5 °F 69% 30.10 in 10.0 mi NW 4.6 mph - N/A   Overcast
11:35 PM 10.8 °F 2.7 °F 2.3 °F 69% 30.09 in 10.0 mi NNW 4.6 mph - N/A   Overcast
11:55 PM 10.8 °F -2.0 °F 2.3 °F 69% 30.11 in 10.0 mi NNW 9.2 mph - N/A   Overcast